200 serials | docsmartz platinum pro registration code

Date Name Success Rate
2009-10-17 06:19:27 Bar Code Pro FileMaster V2.1 MacOSX 59%
2009-10-17 06:19:27 Bar Code Pro V6.02 48%
2009-10-17 06:19:27 Bar Code Pro V6.11 MacOSX-ART 12%
2009-10-17 06:20:07 CATIII Software Code Signer Pro V1.2 12%
2009-10-17 06:20:25 Code Co-op V4.5c 39%
2009-10-17 06:20:25 Code Visualizer V2.28 41%
2009-10-17 06:20:25 Code Visualizer V2.83 22%
2009-10-17 06:20:25 Code Visualizer V3.01 49%
2009-10-17 06:20:25 CODE-VB V3.03 23%
2009-10-17 06:27:02 Lazarus Registration DLL V1.0 59%
2009-10-22 23:27:13 Adobe Mpeg Encoder Activation Code For Premiere Pro 64%
2009-10-22 23:27:21 Ardamax Keylogger 2.9 Registration 56%
2009-10-22 23:44:48 Bar Code Pro FileMaster V2.1 0%
2009-10-22 23:44:48 Bar Code Pro V6.02 0%
2009-10-22 23:44:48 Bar Code Pro V6.11 0%
2009-10-22 23:45:49 Camfrog Pro Code 74%
2009-10-22 23:45:50 CATIII Software Code Signer Pro V1.2 0%
2009-10-22 23:45:53 Code Pro Evolution 6 62%
2009-10-22 23:45:53 Code Source 34%
2009-10-22 23:46:30 DVDFab Platinum 0%
2009-10-22 23:46:30 Dvdfab Platinum 0%
2009-10-22 23:46:30 DVDFab Platinum 0%
2009-10-22 23:48:15 IMSI TurboCAD Pro Platinum V16.0 0%
2009-10-22 23:48:17 Internet Download Manager Registration 50%
2009-10-22 23:48:48 MemoriesonTV Registration 0%
2009-10-22 23:48:49 Microsoft Registration Hacker - 39%
2009-10-22 23:48:52 MP3Videoraptor (Platinum) 100%
2009-10-22 23:49:02 Norton Internet Security 2005 Registration Guide 0%
2009-10-22 23:49:19 Panda Platinum 0%
2009-10-22 23:49:42 Registration Wizard 56%
2009-10-22 23:49:56 Sony Acid Pro 4.0 Tested Code 80%
2009-10-22 23:49:57 SoudForge ALL (No Registration Requiered) 0%
2009-10-22 23:49:57 SoundTax Platinum 0%
2009-10-22 23:50:03 Sygate Platinum 0%
2009-10-22 23:50:13 Tunebite Platinum 0%
2009-10-22 23:50:26 Valve's Registration Armor Key-Gen 60%
2009-10-22 23:50:27 VideoRaptor Platinum 0%
2009-10-22 23:50:35 WinAce Free User's Code 54%
2009-10-22 23:50:36 Windows Validation Code 07.01.2006 0%
2009-10-22 23:50:37 WinDVD Creator Platinum 2.0 Platinum 0%
2009-10-22 23:50:57 Zero Code Designer V1.5 0%
2011-09-08 09:45:41 20/20 Pc-Install Pro v5.08 Code 80%
2011-09-08 09:57:37 Access Code Analyzer 1.01 0%
2011-09-08 09:58:40 Acoustica Mixcraft v1.10 Build 15 Registration Info by MaBi 60%
2011-09-08 10:00:27 Adobe Dimensions V3.0 Code 0%
2011-09-08 10:00:27 Adobe File Utilities Code 0%
2011-09-08 10:00:33 Adobe ImageReady v1.0 Code 0%
2011-09-08 10:00:33 Adobe Mpeg Encoder Activation Code For Premiere Pro 0%
2011-09-08 10:04:57 Alchemist Code Generator 1.5.1.1 0%
2011-09-08 10:06:47 AnetHelpTool v4.02 Registration 60%
2011-09-08 10:06:56 Animated TrayIcon v3.3 Pro. for Delphi/C++ Code 0%
2011-09-08 10:07:13 AntiViral Toolkit Pro Platinum 3.0.131 0%
2011-09-08 10:07:13 AntiViral Toolkit Pro Platinum v3.0.131 0%
2011-09-08 10:12:14 Automate Pro V3.7E Code 0%
2011-09-08 10:18:52 Bar Code Pro 6.02 0%
2011-09-08 10:18:52 Bar Code Pro UPC v1.0 mac 54%
2011-09-08 10:21:42 Browserola v1.01 Temp. Registration 0%
2011-09-08 10:22:13 ByeLines Registration 60%
2011-09-08 10:24:49 CD-Spectrum Pro v3.2.327 Code 0%
2011-09-08 10:25:36 Cheap Date v1.0 Code 0%
2011-09-08 10:25:56 Cheyenne Bitware V4.0 Registration Number 60%
2011-09-08 10:26:20 Claris Filemaker Pro v4.0 Code 0%
2011-09-08 10:27:32 Code 55%
2011-09-08 10:27:32 Code Assist v1.1 54%
2011-09-08 10:27:32 Code Co-Op 3.3b 0%
2011-09-08 10:27:32 Code Co-op 4.2 57%
2011-09-08 10:27:32 Code Counter Pro v1.10 0%
2011-09-08 10:27:32 Code Database v2.2.3 0%
2011-09-08 10:27:32 Code Digger 2.11 0%
2011-09-08 10:27:32 Code Edit Studio 1.0 0%
2011-09-08 10:27:32 Code Keeper v1.0 0%
2011-09-08 10:27:32 Code Lobster 2.1.19 0%
2011-09-08 10:27:32 Code Maker 3.36 0%
2011-09-08 10:27:32 Code Manager v3.0.1 0%
2011-09-08 10:27:36 Code Navigator for C++ 2.01 0%
2011-09-08 10:27:36 Code Print Pro 3.2 0%
2011-09-08 10:27:36 Code Print Pro v3.0 for Delphi 0%
2011-09-08 10:27:36 Code Print Pro v3.2 0%
2011-09-08 10:27:36 Code Print Pro v3.2 for Visual Basic 0%
2011-09-08 10:27:36 Code Review v5.0 win95 0%
2011-09-08 10:27:36 Code Vault 2.2 0%
2011-09-08 10:27:36 Code Whiz Editor 1.3 0%
2011-09-08 10:27:36 Code Whiz Editor v1.4 0%
2011-09-08 10:27:36 Code Wiz v3.0 0%
2011-09-08 10:27:36 Code Wizard v3.0 P1 0%
2011-09-08 10:27:36 Code-Genie 3.07.17 0%
2011-09-08 10:27:36 Code-Genie 3.11.12 0%
2011-09-08 10:27:36 Code-Genie v1.11.12 by REVENGE 0%
2011-09-08 10:27:36 Code-Genie v3.04.20 0%
2011-09-08 10:27:36 Code-Genie v3.06.11 0%
2011-09-08 10:27:36 Code-Genie v3.11.12 0%
2011-09-08 10:27:36 Code-Genie v4.05.18 by NiTROUS 0%
2011-09-08 10:32:20 Crumbler97 V3.0 Code 0%
2011-09-08 10:42:09 DAS Registration 1.5.2 69%
2011-09-08 10:42:09 DAS Registration For CW5 0%
2011-09-08 10:42:09 DAS Registration v1.5.2 0%
2011-09-08 10:42:34 Debabelizer Pro Code 0%
2011-09-08 10:44:07 Display Destroyer Reg code 0%
2011-09-08 10:44:55 Drive Image Pro Code 0%
2011-09-08 10:44:55 Drive Image V1.0 Code 0%
2011-09-08 10:45:13 Dual DVD copy Platinum Platinum 100%
2011-09-08 10:45:36 DvdXCopy Platinum 0%
2011-09-08 10:49:57 ESS Code 0%
2011-09-08 10:49:57 ESS Code v6.7 Win 0%
2011-09-08 10:49:57 ESS-Code 0%
2011-09-08 10:49:57 ESS-Code v7.5 59%
2011-09-08 10:49:57 ESS-Code v7.x 0%
2011-09-08 10:50:06 Eudora Pro Comm Center v4.0For Win95/NT Code 0%
2011-09-08 10:50:43 Extensis PhotoTools v1.1New Code 0%
2011-09-08 10:54:32 File Utilities Code 0%
2011-09-08 10:55:14 Fix It v1.0 Code 100%
2011-09-08 10:56:11 FontLook v3.1 Registration Code 86%
2011-09-08 10:56:17 Forms Plus V2.0 Code 0%
2011-09-08 10:57:42 Ftgate Registration 63%
2011-09-08 11:01:54 G-Code-It 3.0 0%
2011-09-08 11:02:07 Gateway Code for F/X 0%
2011-09-08 11:06:35 Hexer Code 0%
2011-09-08 11:07:11 Hijaak Pro v4.0 Code 0%
2011-09-08 11:09:29 Hotfax Code 0%
2011-09-08 11:13:17 I-Publish V1.05 Code 0%
2011-09-08 11:15:16 Infodex v2.10 Registration 0%
2011-09-08 11:15:45 InstallShield Professionalv5.1 Code 0%
2011-09-08 11:16:40 Internet Voice Mail Code 0%
2011-09-08 11:21:56 Koma-Code TableCalc 1 0%
2011-09-08 11:24:46 L3ENC Code 0%
2011-09-08 11:25:08 Lazarus Registration DLL v1.0 0%
2011-09-08 11:27:46 Mac Opener v3.0 Registration 57%
2011-09-08 11:29:35 Master Wall Framer Code 0%
2011-09-08 11:29:40 MathCad v7.0 Pro for Windows 95/NT Code 0%
2011-09-08 11:29:50 MatLab v6.5 PLP code 0%
2011-09-08 11:30:06 MDB Code Generator v1.0 0%
2011-09-08 11:30:16 MediaBlaze 98 v1.01 Win95/NT User: delphic Registration 0%
2011-09-08 11:31:51 Microsoft Registration Hacker 0%
2011-09-08 11:31:51 Microsoft Registration Hacker - 0%
2011-09-08 11:31:51 Microsoft Registration Hacker MSREGHACK 80%
2011-09-08 11:31:51 Microsoft Registration HackerMSREGHACK 0%
2011-09-08 11:31:51 Microsoft Visual Basic 5 registration cd key 72%
2011-09-08 11:32:07 Microstation v5.xx.xx & 95 FULL REGISTRATION 48%
2011-09-08 11:32:59 mIRC v4.5+ Registration 60%
2011-09-08 11:32:59 mIRC v4.52 Registration 60%
2011-09-08 11:33:45 Morse Code Explorer v1.3 0%
2011-09-08 11:34:59 MS-Office 97 Code 0%
2011-09-08 11:41:46 Netobjects Fusion v3.0 Code 0%
2011-09-08 11:42:43 Nic O'Matic 1.6 Registration Code 50%
2011-09-08 11:42:43 Nic O'Matic v1.6 Registration Code 55%
2011-09-08 12:25:44 My Movies Code 0%
2011-09-08 12:26:38 Omni Page Pro. v7.01 forWindows 95 Code 0%
2011-09-08 12:26:42 OmniPage Pro v7.0 Code 0%
2011-09-08 12:27:50 Pagis Pro '97 Code 0%
2011-09-08 12:28:40 Password Pro v2.0.0 Code 0%
2011-09-08 12:33:22 PhotoStudio v2.0 Copy Code 65%
2011-09-08 12:34:30 Pluck-It Code 0%
2011-09-08 12:34:30 PluckIt! Code 0%
2011-09-08 12:34:57 PolyTrans V1.2E Registration Activator CD-Key 62%
2011-09-08 12:34:57 PolyView v2.9b16 Registration 0%
2011-09-08 12:35:29 Poster v5.2e Code 0%
2011-09-08 12:35:52 PowerBuilder Code Analyzer 2.1b 0%
2011-09-08 12:35:55 PowerDVD Code 55%
2011-09-08 12:36:33 Primal Code 3.1.452 0%
2011-09-08 12:37:02 Quant v2.0 Registration 0%
2011-09-08 12:37:06 Quark Xpress v3.32 Code 0%
2011-09-08 12:37:42 QuickView Plus v4.0 code 0%
2011-09-08 12:38:33 Programming Code Editor 1.7 0%
2011-09-08 12:39:02 Psychedelic ScreenSaver V3.6 Code for CD Spectrum Pro 0%
2011-09-08 12:41:14 Registration Suite 1.0 60%
2011-09-08 12:41:14 Registration Suite v1.0 60%
2011-09-08 12:41:14 Registration Wizard Pro 5.01 0%
2011-09-08 12:41:14 Registration Wizard Pro v5.01 60%
2011-09-08 12:45:07 SaleSmartz Pro v3.0 Win95/NT Activation Code: e2bkCbbjZGpadan 0%
2011-09-08 12:52:10 TeeChart Pro Full Source Code for Delphi CPPB Kylix 5.02 0%
2011-09-08 12:52:10 TeeChart Pro Full Source Code for Delphi CPPB Kylix v5.02 0%
2011-09-08 12:54:09 Time Registration (German) 1.10 0%
2011-09-08 12:54:14 TimeSlips 10.5 enterprise - with registration code! 0%
2011-09-08 12:59:30 Super Collapse Registration 100%
2011-09-08 13:12:43 Visual Help Pro v3.1e Win 1/2 Reg. code is month checking 0%
2011-09-08 13:13:25 VuePrint 32 Pro v1.0E Code 0%
2011-09-08 13:13:27 VUEPrint v1.1F Pro Code 0%
2011-09-08 13:15:37 WarezFTP PRO V4.12 Code 0%
2011-09-08 13:16:08 Web Promotion Spider Pro v3.8.76 Professional Code 0%
2011-09-08 13:16:08 Web Promotion Spider Pro v3.8.76 Standard Code 0%
2011-09-08 13:16:37 WebGenie Shopping Cart Pro v2.02 Code 0%
2011-09-08 13:16:51 Webspider Code 0%
2011-09-08 13:18:38 WinDVD Creator Platinum 2.0 platinum 0%
2011-09-08 13:18:38 WinDVD Creator Platinum v2.0 platinum 0%
2011-09-08 13:18:40 WinDVD Platinum 0%
2011-09-08 13:18:40 WinDVD Platinum v5.0.26.007C Platinum 0%
2011-09-08 13:18:59 WinHacker 95 v2.02 Registration 57%
2011-09-08 13:20:51 WS_FTP PRO V4.12 FOR Windows Code 0%
2011-09-08 13:23:15 Yipe! II for Windows Registration #154 0%
2011-09-08 13:23:48 Zip Code Pro 99 ActiveX 1.0 0%
2011-09-08 13:23:48 Zip Code Pro 99 ActiveX v1.0 0%
2012-12-12 03:37:44 Backup Platinum 0%
2012-12-12 05:06:04 camfrog CODE : 28%
2012-12-12 08:07:32 Download avast 5.0.667 Antivirus registration 0%
2012-12-12 12:41:36 Full speed 3.3 pro boost unlock code 48%
2012-12-12 13:43:01 Gulf Coast Applications ScrewLab Pro Platinum v3.8 0%
2012-12-12 15:03:03 IMSI TurboCAD Pro Platinum v19.0 0%
2012-12-12 15:03:04 IMSI TurboCAD Pro Platinum v19.1 42%
2012-12-12 16:57:20 Kickback code 0%
2012-12-12 19:40:26 Microsoft Visual Basic 2008 Express Edition Registration key 20%